Retour au catalogue

FENGYUN 1C DEB

ActifPO
NORAD 31415·DEBRIS·🇨🇳 China

Lancé May 10, 1999 depuis Taiyuan Satellite Launch Center

Loading…

Prochains Passages (prochaines 24 heures)

TLE

FraisSource: Space-Track

Époque: Sep 13, 2026, 04:18 UTC

1 31415U 99025BTB 26256.17948472  .00001949  00000-0  72711-3 0  9996
2 31415  99.6686 243.7066 0062332  13.5582 346.7255 14.32213099667575

Suivez FENGYUN 1C DEB en temps réel avec AllMySat

Download on the App Store